Location: Unspecified
(47.4992°N, 121.7766°W)
Time: 15:30:54
(UTC-07:00)

ISS - Pass Details

Date: 27 April 2024
Orbit: 410 x 414 km, 51.6° (Epoch: 18 May)

Event Time Altitude Azimuth Distance (km) Brightness Sun altitude
Exits shadow 04:56:22 12° 261° (W) 1,340 -1.8 -9.7°
Maximum altitude 04:59:18 61° 341° (NNW) 471 -3.5 -9.3°
Drops below altitude 10° 05:02:36 10° 63° (ENE) 1,479 0.7 -8.8°
Sets 05:04:43 0° 67° (ENE) 2,342 2.2 -8.5°
